Current weather by "City, St" or "zip code"  
 

Current Conditions: Beckley, Raleigh County Memorial Airport, WV

Fog/Mist


30.0 F

Last Updated on Jan 31 2023, 8:51 pm EST
Humidity: 100%
Wind Speed: NW 6.9 mph
Barometer 30.12 in
Dewpoint: 30.0 F
Visibility: 2.50 mi
Precip: --
Heat Index: NA
Wind Chill: 23 F
Current conditions at:

Beckley, Raleigh County Memorial Airport, WV (KBKW)

Lat: 37.795 Lon: 81.12472

Local Radar Image active severe weather and emergency alerts image image weather storm and storm spotter reports image weather observation monitoring service image
Local
Radar
Active
Alerts
Storm Reports Obs
Monitoring

Sign-up For Email & Text Message Weather Alert Notification Services



Advertise Here

Observation History for Beckley, Raleigh County Memorial Airport, WV


Time Wind
(mph)
Vis
(mi)
Weather Precip (in) Temperature (F) Relative
Humidity
Wind
Chill
(F)
Heat
Index
(F)
Pressure
Air Dwpt altimeter
(in)
sea level
(mb)
Rmks
8:51 pm EST NW 6.9 2.50 Fog/Mist -- 30.0 30.0 100% 23 NA 30.12 1022.8
7:51 pm EST N 8.1 2.50 Fog/Mist Trace 31.0 30.9 100% 24 NA 30.13 1023.2
6:51 pm EST N 8.1 1.50 Unknown Precip Fog/Mist 00.01 33.0 33.1 100% 26 NA 30.11 1022.4
5:51 pm EST N 4.6 0.25 Fog -- 35.0 35.1 100% 31 NA 30.09 1021.1
4:51 pm EST N 4.6 0.25 Fog -- 35.0 35.1 100% 31 NA 30.08 1020.8
3:51 pm EST N 0.0 3.00 Fog/Mist -- 36.0 36.0 100% NA NA 30.09 1020.8
11:51 am EST N 0.0 5.00 Fog/Mist Trace 32.0 30.9 96% NA NA 30.19 1023.9
10:51 am EST N 5.8 1.50 Light Freezing Rain Fog/Mist Trace 31.0 30.9 100% 25 NA 30.20 1024.3
9:51 am EST NW 10.4 10.00 Overcast 00.01 31.0 30.0 96% 22 NA 30.19 1023.8
4:51 am EST N 6.9 0.25 Light Rain Fog Trace 37.0 37.0 100% 32 NA 30.14 1021.6
3:51 am EST N 9.2 0.25 Fog -- 38.0 37.9 100% 32 NA 30.13 1021.0
2:51 am EST N 9.2 7.00 Overcast -- 46.0 44.1 93% 41 NA 30.12 1020.2
1:51 am EST 5.8 10.00 Overcast -- 48.0 45.0 89% 45 NA 30.11 1019.5
12:51 am EST SW 4.6 10.00 Overcast -- 47.0 45.0 93% 45 NA 30.12 1020.2
11:51 pm EST SW 5.8 10.00 Overcast -- 48.0 45.0 89% 45 NA 30.13 1020.5
10:51 pm EST SW 6.9 10.00 Overcast -- 48.0 45.0 89% 45 NA 30.15 1021.3
8:51 pm EST N 0.0 10.00 Overcast -- 48.0 45.0 89% NA NA 30.15 1021.5

Regional Weather Observation


Logan County Airport, WV (K6L4)

Fog/Mist
30.0 F

Pineville, Kee Field Airport, WV (KI16)

Fair
54.0 F

Charleston, Yeager Airport, WV (KCRW)

Light Freezing Rain
29.0 F

Bluefield, Mercer County Airport, WV (KBLF)

Fog/Mist
37.0 F

Lewisburg / Greenbrier, WV (KLWB)

Overcast
39.0 F

Tazewell County Airport, VA (KJFZ)

Fog
37.0 F

Advertise Here


Advertise Here